Location: Holcomb Observatory
(44.4922°N, 73.1654°W)
Time: 05:32:01
(UTC-04:00)

Daily predictions for brighter satellites

Satellite Brightness Start Highest point End
(mag) Time Altitude Azimuth Time Altitude Azimuth Time Altitude Azimuth
Meteor 1-12 Rocket 4.3 00:00:09 10° NNW 00:05:42 79° NNW 00:05:42 79° NNW
Cosmos 1125 Rocket 4.0 00:00:59 10° NNW 00:05:28 59° NNE 00:05:28 59° NNE
Cosmos 2219 Rocket 4.4 00:03:21 10° W 00:07:26 20° NW 00:11:34 10° N
ATLAS 2AS CENTAUR R/B 2.8 00:08:09 72° SSE 00:08:44 76° ESE 00:16:51 10° NE
CZ-2C R/B 3.6 00:20:41 51° N 00:20:41 51° N 00:24:24 10° N
Cosmos 2184 Rocket 4.0 00:14:49 10° N 00:21:02 85° NNE 00:21:02 85° NNE
Cosmos 2327 Rocket 4.4 00:17:05 10° N 00:22:47 78° N 00:22:47 78° N
Terra 4.3 00:23:55 12° W 00:23:55 12° W 00:25:15 10° WNW
Cosmos 540 Rocket 4.3 00:32:46 47° NNE 00:32:46 47° NNE 00:36:25 10° NNE
ATLAS 3B R/B 2.5 00:28:39 10° NW 00:35:08 79° WNW 00:35:08 79° WNW
Cosmos 1607 4.1 00:32:58 10° NW 00:38:30 64° WNW 00:38:30 64° WNW
Cosmos 1603 4.0 00:40:43 62° NNE 00:40:43 62° NNE 00:45:29 10° NNE
Cosmos 2369 Rocket 2.6 00:35:32 10° NNW 00:40:34 58° NNE 00:40:34 58° NNE
ATLAS CENTAUR R/B 3.5 00:42:33 25° NNW 00:42:33 25° NNW 00:45:13 10° NNE
Cosmos 1610 Rocket 4.5 00:39:29 10° N 00:45:36 81° NW 00:45:36 81° NW
Cosmos 1943 Rocket 3.1 00:43:18 10° NNW 00:48:37 39° NE 00:49:00 39° ENE
Cosmos 2341 Rocket 4.2 00:43:14 10° N 00:49:17 59° ENE 00:49:17 59° ENE
Cosmos 2074 Rocket 4.4 00:44:26 10° NNW 00:50:02 53° WNW 00:50:02 53° WNW
Cosmos 1238 Rocket 4.1 00:53:01 59° NNE 00:53:01 59° NNE 00:57:58 10° N
USA 238 DEB 3.6 00:52:45 10° NW 00:59:41 80° WSW 00:59:41 80° WSW
USA 238 3.6 00:52:51 10° NW 00:59:49 80° WSW 00:59:49 80° WSW
Cosmos 44 Rocket 4.4 00:55:47 10° NNW 00:59:18 39° NNE 00:59:18 39° NNE
Cosmos 2154 Rocket 4.0 00:54:25 10° N 01:00:21 80° NNW 01:00:21 80° NNW
CZ-4B R/B 4.5 01:03:46 15° N 01:03:46 15° N 01:04:22 10° N
SL-16 R/B 3.9 01:04:06 23° WNW 01:05:41 26° NW 01:10:25 10° N
USA 215 4.2 01:08:48 10° ENE 01:13:16 32° ESE 01:13:16 32° ESE
Meteor 1-23 Rocket 4.4 01:19:45 67° N 01:19:45 67° N 01:24:35 10° N
CZ-2C R/B 3.8 01:21:02 10° N 01:25:57 34° WNW 01:25:57 34° WNW
CENTAUR R/B 4.3 01:24:31 10° NNW 01:31:35 38° NE 01:39:11 10° ESE
NOSS 3-2 (C) 4.1 01:24:18 10° NW 01:31:46 74° NE 01:34:43 43° SE
Cosmos 2366 rocket 4.0 01:39:40 10° N 01:45:59 73° E 01:46:20 71° ESE
Cosmos 2218 Rocket 3.9 01:40:09 10° N 01:46:24 82° E 01:46:29 82° E
Cosmos 2181 Rocket 4.0 01:46:45 70° W 01:46:50 70° W 01:53:19 10° N
Cosmos 2228 4.3 01:43:57 10° N 01:46:51 40° N 01:46:51 40° N
USA 267 4.3 01:42:27 10° E 01:48:32 42° NNE 01:54:37 10° NW
Cosmos 864 Rocket 4.4 01:46:35 10° N 01:52:56 78° E 01:53:23 74° SE
COSMOS 2455 3.1 01:47:12 10° NNW 01:53:13 64° NE 01:54:23 53° ESE
SL-8 Rocket 3.9 01:50:11 10° NNW 01:56:08 70° W 01:56:08 70° W
Cosmos 1943 3.8 01:58:32 47° WNW 01:58:36 47° WNW 02:04:03 10° NNE
NOSS 3-4 (A) 3.4 01:59:15 76° SE 01:59:22 76° ESE 02:05:52 10° NE
NOSS 3-4 (C) 3.4 01:59:22 75° SE 01:59:27 75° ESE 02:05:58 10° NE
SL-16 R/B 4.3 01:54:55 10° ESE 01:59:58 27° ENE 02:05:01 10° N
ATLAS 2AS CENTAUR R/B 4.2 01:55:31 19° W 02:00:31 37° NW 02:07:56 10° NNE
H-2A R/B 4.2 02:04:29 10° N 02:06:28 25° NNW 02:06:28 25° NNW
SL-08 R/B 4.3 02:08:24 39° E 02:08:57 41° ENE 02:13:27 10° N
Cosmos 923 Rocket 4.1 02:10:36 78° NE 02:10:36 78° NE 02:15:37 10° NNE
Cosmos 724 4.3 02:04:25 10° NW 02:10:07 74° W 02:10:07 74° W
NOSS 3-2 (A) 4.0 02:03:19 10° NW 02:10:42 60° WSW 02:11:09 59° SW
CZ-2D R/B 4.1 02:09:39 10° NE 02:13:14 18° E 02:14:58 16° ESE
Meteor 1-4 Rocket 4.3 02:12:28 10° N 02:14:56 34° NNE 02:14:56 34° NNE
Cosmos 1809 Rocket 4.4 02:13:36 10° NNW 02:19:40 66° W 02:19:43 66° W
Cosmos 2369 Rocket 4.1 02:20:35 10° NW 02:22:21 16° WNW 02:22:21 16° WNW
BREEZE M DEB (TANK) 4.4 02:06:48 10° WNW 02:27:49 52° SW 02:28:58 49° SSW
Cosmos 1943 Rocket 3.4 02:27:14 10° NW 02:30:31 28° WNW 02:30:31 28° WNW
Cosmos 1812 Rocket 3.9 02:30:23 10° N 02:34:07 63° N 02:34:07 63° N
PSLV R/B 4.5 02:31:47 10° N 02:35:36 42° NW 02:35:36 42° NW
Nadezhda 3 Rocket 4.0 02:35:15 57° SSE 02:36:36 78° E 02:42:58 10° N
Cosmos 1271 Rocket 4.1 02:33:11 10° N 02:36:34 34° ENE 02:36:34 34° ENE
Cosmos 1805 4.1 02:38:40 10° N 02:42:14 48° ENE 02:42:14 48° ENE
Cosmos 2112 Rocket 3.9 02:45:01 71° W 02:45:18 73° WNW 02:50:35 10° NNE
IRS-1C 4.4 02:40:50 10° NNE 02:46:08 59° E 02:47:11 49° SE
Helios 1A Rocket 4.2 02:43:33 10° N 02:46:29 33° NW 02:46:29 33° NW
Aureole 1 Rocket 3.6 02:49:14 52° NW 02:49:14 52° NW 02:52:56 10° N
Meteor 2-8 Rocket 4.4 02:47:57 51° S 02:49:34 77° E 02:55:44 10° NNE
Lacrosse 5 rocket 1.8 02:52:20 59° ESE 02:52:20 59° ESE 02:56:44 10° NE
AQUA 3.7 02:50:56 10° NNE 02:55:45 82° ESE 02:56:10 73° SSE
UNK 4.2 02:56:04 37° SE 02:57:35 57° ENE 03:02:05 10° N
USA 215 3.3 02:51:31 10° NE 02:58:03 73° NW 03:00:37 40° WSW
Cosmos 1624 Rocket 3.9 02:53:27 10° NNW 02:58:41 89° WSW 02:59:55 54° SSE
Cosmos 1842 3.5 02:59:23 64° N 02:59:23 64° N 03:02:44 10° N
Cosmos 1766 4.4 02:59:28 10° NNW 03:02:04 34° NW 03:02:04 34° NW
COSMOS 2406 3.2 03:02:16 55° WSW 03:03:26 71° WNW 03:09:12 10° NNE
Cosmos 1656 Rocket 4.4 03:03:27 10° NW 03:07:22 34° W 03:07:22 34° W
IRS-P3 4.2 03:04:09 10° N 03:09:24 60° WNW 03:10:22 51° WSW
Cosmos 2098 Rocket 4.1 03:08:18 10° NNE 03:10:45 23° ENE 03:11:13 22° E
Cosmos 1825 Rocket 3.4 03:11:55 73° SSW 03:12:19 88° W 03:16:45 10° N
NOSS 2-2 (E) 3.4 03:12:11 72° S 03:12:30 79° SE 03:17:19 10° NE
Cosmos 2056 Rocket 3.4 03:07:21 10° NNW 03:12:41 73° WSW 03:14:02 49° S
Spot 4 Rocket 4.1 03:08:35 10° NNE 03:13:45 72° ESE 03:15:25 43° S
ADEOS Rocket 3.3 03:08:48 10° NNE 03:14:55 67° ESE 03:18:33 29° S
Cosmos 389 Rocket 3.8 03:12:54 10° N 03:16:21 39° ENE 03:17:43 27° ESE
Cosmos 1680 Rocket 4.4 03:16:50 32° W 03:17:48 35° WNW 03:22:36 10° N
Cosmos 1821 Rocket 3.9 03:12:37 10° NNW 03:18:41 68° W 03:20:58 39° SSW
USA 32 4.0 03:17:06 42° S 03:18:55 82° E 03:24:12 10° N
CBERS-1 4.2 03:14:40 10° N 03:19:40 56° WNW 03:20:41 47° WSW
Cosmos 1707 4.3 03:18:32 22° SE 03:20:07 31° E 03:23:33 10° NNE
RESURS DK-1 3.4 03:21:41 32° WNW 03:21:55 32° NW 03:25:40 10° N
CENTAUR R/B 3.0 03:15:05 10° NW 03:22:57 72° WSW 03:31:19 10° SSE
USA 267 3.1 03:24:40 10° SE 03:31:13 81° SW 03:37:49 10° NW
SL-27 R/B 3.5 03:33:10 34° WNW 03:33:10 34° WNW 03:36:21 10° N
Resurs 1-4 Rocket 2.0 03:27:43 10° NNE 03:33:02 90° WNW 03:35:17 36° SSW
Cosmos 1470 2.9 03:29:10 10° N 03:33:05 72° E 03:34:35 36° SSE
Cosmos 1934 Rocket 4.0 03:28:55 10° NNW 03:35:10 66° W 03:38:35 28° SSW
IRS-1D 3.5 03:32:02 10° NNE 03:37:18 81° WNW 03:39:35 35° SSW
COSMOS 2455 4.1 03:34:02 10° NW 03:37:27 22° W 03:37:27 22° W
Cosmos 1605 Rocket 3.9 03:33:18 10° N 03:39:33 86° W 03:44:26 17° S
Okean O Rocket 4.3 03:37:53 10° NE 03:40:33 15° E 03:43:11 10° SE
ARIANE 5 R/B 2.5 03:37:08 10° N 03:42:23 78° WNW 03:44:46 33° SSW
SL-16 R/B 2.6 03:39:58 27° SSW 03:43:12 56° W 03:49:17 10° NNW
ADEOS 3.5 03:38:16 10° N 03:43:31 76° WNW 03:45:53 33° SSW
Cosmos 1452 Rocket 3.4 03:42:08 10° NNW 03:47:26 86° WSW 03:52:40 10° SSE
NOSS 2-2 (D) 3.8 03:47:55 38° WSW 03:49:16 58° NW 03:54:02 10° NNE
USA 161 2.4 03:48:07 23° SE 03:49:36 47° ENE 03:52:19 10° N
Cosmos 1953 2.9 03:46:01 10° NNW 03:49:42 36° W 03:49:46 36° W
UNKNOWN OBJECT B 3.0 03:46:48 10° NNE 03:50:50 72° ESE 03:52:51 28° S
Cosmos-2242 2.9 03:48:14 10° NNW 03:52:39 75° W 03:55:11 25° S
CZ-2D R/B 2.2 03:48:31 10° N 03:53:45 61° WNW 03:56:18 30° SW
Cosmos 1697 Rocket 3.6 03:48:16 10° NNW 03:53:45 51° ENE 03:59:12 10° SE
Cosmos 1733 3.1 03:51:21 10° NNW 03:55:07 61° W 03:56:19 38° SSW
Abrixas 3.7 03:54:21 23° NW 03:55:34 37° N 03:58:13 10° ENE
MOS 1 Rocket 3.8 03:52:23 10° NNE 03:56:40 52° E 04:00:29 14° S
Cosmos 921 Rocket 3.9 03:54:15 10° NW 03:58:12 30° W 03:58:27 30° WSW
Cosmos 1420 Rocket 4.1 03:55:53 10° NNW 04:01:14 83° ENE 04:06:32 10° SSE
Cosmos 1842 Rocket 3.9 04:00:21 10° N 04:04:45 66° E 04:09:10 10° SSE
Cosmos 2278 3.6 04:00:00 10° NNW 04:05:41 68° WSW 04:11:20 10° SSE
MOZ.5/SAFIR/RUBIN 5/SL-8 3.7 04:01:45 11° S 04:06:08 73° WSW 04:10:50 10° NNW
Cosmos 1758 Rocket 4.4 04:06:30 27° WSW 04:07:46 32° WNW 04:11:41 10° N
NOSS 2-2 (C) 4.3 04:05:48 25° W 04:07:46 41° NW 04:12:24 10° NNE
Cosmos 1048 Rocket 4.5 04:04:11 14° S 04:08:29 56° ESE 04:13:29 10° NNE
Cosmos 839 Rocket 4.4 04:02:40 10° NW 04:08:48 49° WSW 04:15:58 10° S
COSMOS 2487 2.5 04:10:22 33° SW 04:11:46 63° WNW 04:15:20 10° NNE
EXPRESS MD2 3.3 04:05:46 10° WNW 04:11:53 73° SSW 04:15:00 10° SE
Cosmos 2221 4.4 04:08:21 10° N 04:12:12 31° ENE 04:16:01 10° SE
Cosmos 2100 Rocket 4.1 04:07:18 10° N 04:13:32 77° E 04:19:40 10° SSE
Cosmos 2369 3.7 04:08:43 10° NNW 04:14:21 59° WSW 04:19:58 10° S
Cosmos 2173 Rocket 4.2 04:09:35 10° N 04:15:54 73° E 04:22:04 10° SSE
Cosmos 1818 4.2 04:14:38 21° WSW 04:17:56 43° NW 04:23:09 10° NNE
Cosmos 1656 3.5 04:12:46 10° NNW 04:18:13 77° WSW 04:23:38 10° SSE
CZ-2D R/B 3.4 04:15:12 10° N 04:19:13 65° WNW 04:21:48 21° SSW
Cosmos 1833 Rocket 2.7 04:21:58 14° SSW 04:26:49 82° ESE 04:32:28 10° NNE
Cosmos 1269 Rocket 4.1 04:23:54 13° SSW 04:28:42 84° ESE 04:34:01 10° NNE
Cosmos 1980 Rocket 2.9 04:23:14 10° NNW 04:28:53 58° ENE 04:34:27 10° SE
GEOS 3 Rocket 4.0 04:24:46 10° NNE 04:29:56 57° NW 04:34:03 16° WSW
Lacrosse 5 rocket 2.9 04:28:02 13° W 04:31:41 33° NNW 04:35:53 10° NE
Cosmos 2082 Rocket 2.2 04:27:15 14° SSW 04:32:09 84° WNW 04:37:54 10° NNE
DNEPR-1 R/B 4.5 04:29:03 10° WNW 04:32:32 25° WSW 04:36:13 10° S
ADEOS II 2.8 04:28:23 10° NNE 04:33:32 54° E 04:38:40 10° S
USA 215 4.4 04:34:40 10° NE 04:40:29 35° NNW 04:46:17 10° WNW
CZ-4B R/B 3.9 04:36:06 10° NNE 04:41:21 53° E 04:46:30 10° S
Meteor 2-5 Rocket 4.1 04:37:49 12° SSW 04:42:58 51° WNW 04:48:41 10° N
Landsat 4 4.0 04:43:39 10° S 04:47:13 43° W 04:50:49 10° NNW
Cosmos 2061 Rocket 4.0 04:41:19 10° NNW 04:47:31 71° W 04:53:39 10° S
Cosmos 389 Rocket 4.5 04:49:06 10° WNW 04:50:49 13° W 04:51:42 12° WSW
SL-16 R/B 4.1 04:45:59 10° N 04:51:08 34° NE 04:56:15 10° ESE
Cosmos 2098 Rocket 4.3 04:51:31 10° W 04:51:53 10° W 04:51:55 10° W
Cosmos 1378 4.2 04:49:57 13° SW 04:52:38 28° WNW 04:55:56 10° NNW
Cosmos 158 Rocket 4.0 04:48:28 10° SSW 04:53:27 67° WNW 04:58:38 10° NNE
Cosmos 2016 Rocket 4.0 04:48:01 10° N 04:54:18 80° W 05:00:37 10° S
PAYLOAD B 4.4 04:49:10 10° NNE 04:54:46 77° ESE 05:00:18 10° S
Cosmos 1707 4.3 04:53:47 12° WSW 04:56:07 19° WNW 04:58:57 10° NNW
Meteor 2-1 Rocket 4.3 04:51:32 10° NNW 04:57:09 65° W 05:02:51 10° S
Cosmos 2123 Rocket 4.3 04:51:12 10° S 04:57:27 74° E 05:03:44 10° NNE
CZ-4B R/B 3.1 04:55:31 10° N 04:59:53 80° WNW 05:04:22 10° SSW
ADEOS Rocket 4.4 04:55:21 10° N 05:00:02 24° WNW 05:05:03 10° WSW
Okean 3 Rocket 3.6 04:58:50 10° S 05:03:14 81° W 05:07:42 10° N
Meteor 1-31 Rocket 4.5 05:02:47 10° NNE 05:06:24 35° E 05:10:02 10° SSE
Cosmos 1908 3.5 05:03:23 10° N 05:07:15 72° E 05:11:07 10° SSE
In-Cosmos 22 4.1 05:05:09 10° SSW 05:10:25 69° WNW 05:15:43 10° N
Cosmos 1076 Rocket 3.6 05:07:11 10° S 05:11:25 84° E 05:15:42 10° N
Resurs 1-4 Rocket 4.0 05:09:27 10° NNW 05:12:06 14° WNW 05:14:46 10° W
CENTAUR R/B 4.3 05:07:56 10° WNW 05:12:39 17° WSW 05:17:28 10° SW
Cosmos 1459 Rocket 4.4 05:07:23 10° NNW 05:13:06 41° W 05:18:53 10° SSW
USA 267 4.2 05:09:55 10° S 05:14:52 23° WSW 05:19:50 10° WNW
Cosmos 494 Rocket 4.3 05:10:31 10° S 05:15:35 70° ESE 05:20:42 10° NNE
Cosmos 1802 Rocket 4.4 05:11:32 10° NNW 05:17:36 46° W 05:23:37 10° SSW
